{"data":{"norad_id":62271,"intl_designator":"2024-237E","name":"STARLINK-11489 [DTC]","alt_names":[],"object_type":"PAYLOAD","status":"ACTIVE","operator":null,"country":"US","launch_date":"2024-12-08","launch_site_code":"AFETR","launch_vehicle":null,"mission":null,"orbit_class":"UNKNOWN","rcs_meters":null,"size_class":null,"mass_kg":null,"dimensions":null,"purposes":["comms"],"wikipedia_slug":null,"has_3d_model":false,"image_url":null,"decayed_at":null,"tle_current":{"epoch":"2026-09-21T04:38:06.362880Z","epoch_age_seconds":117799,"freshness":"FRESH","line1":"1 62271U 24237E   26264.19312920  .00108939  00000+0  84046-3 0  9997","line2":"2 62271  42.9996 318.7405 0001315 247.0530 113.0199 15.70866654103790","mean_motion":15.70866654,"eccentricity":0.0001315,"inclination_deg":42.9996,"raan_deg":318.7405,"arg_perigee_deg":247.053,"mean_anomaly_deg":113.0199,"bstar":0.00084046,"rev_number":10379,"period_min":91.669143038541,"perigee_km":355.53328642709,"apogee_km":357.30447462367,"semimajor_km":6734.5558805254,"source":"CELESTRAK","updated_at":"2026-09-22T09:00:49.566482Z"}}}